RH
100 100 90 100 86 96 100 100 100 81 100 78 67 81 72 55 77 79 74 88 100 100 94 77 64 71 61
100 100 100 100 100 100 99 100 100 100 100 88 74 80 66 82 84 79 81 95 100 90 73 65 73 69 54
84 100 100 100 100 100 100 100 99 83 95 85 81 80 100 95 100 80 90 92 100 82 73 80 77 54 52
87 98 100 100 100 100 100 100 88 94 85 86 71 97 96 98 81 91 100 94 81 88 61 63 52 45 41
99 100 100 100 86 94 90 89 90 77 100 100 86 90 84 89 100 100 66 40 56 61 66 48 42 39 33
99 100 96 100 86 79 88 100 100 91 100 93 83 99 99 100 100 46 34 42 72 66 49 39 31 25 16
100 100 99 100 95 100 93 100 95 92 92 100 100 100 100 89 63 59 56 68 63 47 37 28 17 14 13
100 100 100 100 100 97 100 81 95 100 100 100 100 100 98 96 70 63 64 56 45 32 19 14 13 11 9
100 100 100 100 100 100 100 100 100 100 98 100 100 100 100 78 71 65 59 40 25 14 13 12 9 8 8
100 86 100 100 100 100 100 100 100 100 97 100 100 89 66 75 70 60 34 17 14 13 11 9 8 6 4
80 69 97 100 100 100 100 100 96 94 100 99 75 56 65 60 40 23 17 14 13 11 9 8 5 3 4
87 92 100 100 100 100 96 98 95 92 81 64 56 61 41 26 21 17 14 13 11 10 8 4 3 4 4
91 100 83 92 100 97 99 92 83 80 68 51 39 30 23 19 16 13 13 14 11 7 4 4 4 6 6
90 92 87 93 99 91 76 76 73 53 34 28 28 22 20 16 13 12 13 11 6 4 5 5 5 6 6
91 85 65 62 52 53 64 55 39 31 31 31 24 20 17 14 12 12 10 6 5 5 7 7 6 9 8
44 35 33 40 40 35 31 28 27 33 30 23 21 20 18 14 10 7 6 6 6 6 7 8 9 9 8
29 30 29 29 28 28 26 30 31 27 23 20 16 17 15 13 7 3 6 6 8 7 8 9 9 9 7
Wind_Speed
90 98 102 93 99 93 90 98 104 109 104 113 114 110 116 113 108 107 112 118 116 120 112 81 59 66 76
101 108 101 100 95 95 103 101 112 110 113 115 117 114 113 111 111 117 117 120 120 116 88 69 78 85 83
110 105 105 97 99 103 108 111 115 119 112 116 114 114 110 111 118 124 122 129 129 108 84 93 93 93 97
111 107 104 102 103 104 104 104 109 111 113 113 115 111 117 121 128 133 137 136 117 104 95 100 103 104 106
103 102 104 101 107 106 108 108 110 106 104 106 114 120 126 126 136 139 126 104 105 99 107 109 111 114 115
106 108 105 106 112 106 106 108 111 111 112 121 122 130 133 134 129 103 102 104 106 112 117 118 118 116 111
102 101 102 101 106 108 114 117 116 116 123 123 125 133 125 118 110 113 114 115 120 122 122 121 114 111 103
106 110 113 112 113 116 116 122 119 126 126 129 126 124 110 113 119 122 123 126 126 125 121 116 107 100 96
108 111 112 116 114 118 117 118 125 129 120 127 119 105 112 119 124 129 130 130 129 124 117 109 99 93 93
101 96 102 113 117 117 121 124 121 125 113 114 109 117 116 119 126 130 129 129 128 121 110 102 97 91 86
90 88 96 105 112 116 121 118 110 110 109 109 116 119 120 120 122 125 124 124 121 113 108 103 92 78 73
92 96 103 106 109 106 102 104 105 108 114 118 117 119 119 119 121 123 120 119 112 109 103 92 80 71 64
93 98 100 100 103 107 104 108 113 117 116 114 114 116 119 121 119 117 114 118 112 101 88 79 69 64 63
96 98 98 96 100 106 109 110 114 116 115 112 113 115 117 120 116 112 114 108 95 83 75 71 63 60 60
97 99 102 104 103 102 105 108 109 108 112 115 114 115 117 117 114 111 106 92 80 70 65 66 61 57 58
96 97 97 99 100 101 103 103 104 105 106 109 112 115 118 120 111 92 89 77 71 63 59 57 59 55 53
94 95 96 97 98 100 101 100 100 102 107 110 111 111 111 111 104 80 72 68 64 62 57 53 52 51 51
Wind_Direction
290 290 294 287 290 293 291 291 294 300 297 300 302 302 306 307 312 312 314 315 311 313 312 308 299 298 295
288 291 288 288 285 286 290 290 295 296 299 300 300 301 305 306 308 309 309 312 313 312 306 299 299 300 297
290 287 284 285 284 286 287 288 290 295 295 299 299 302 300 302 305 307 308 308 311 311 300 303 301 299 299
290 287 286 285 287 290 291 292 293 294 298 297 299 298 302 300 305 306 307 308 306 304 301 301 300 298 298
288 285 284 285 287 290 291 294 296 298 299 299 299 301 303 303 306 306 304 304 305 301 301 300 300 301 302
284 283 286 285 289 291 293 294 293 296 297 299 301 305 306 305 306 304 304 306 304 301 301 301 303 303 303
284 283 288 288 293 293 294 296 296 298 298 300 300 303 307 304 302 304 306 304 302 301 301 303 304 305 302
286 288 290 286 290 294 293 298 297 298 299 299 301 304 301 301 302 304 304 302 302 302 305 308 306 303 301
285 286 286 289 291 294 294 297 299 299 301 301 303 298 298 301 303 303 302 302 303 306 309 309 306 305 303
288 289 289 290 290 292 293 296 297 298 298 299 296 297 300 303 302 300 300 303 306 309 310 308 307 306 301
288 288 289 289 290 292 295 295 293 295 296 296 296 300 303 300 299 300 302 306 308 311 310 309 307 305 302
285 287 287 286 290 293 292 294 295 295 295 298 301 302 300 300 301 303 306 309 311 311 309 308 307 307 303
286 286 286 285 286 290 292 293 295 296 299 301 301 300 300 300 302 306 311 311 311 309 309 307 307 307 304
285 287 290 290 289 289 294 297 297 300 302 301 301 300 301 303 307 313 312 309 309 309 309 307 308 307 305
285 286 290 291 293 296 296 297 299 300 302 303 301 301 304 306 311 312 309 310 310 310 309 307 308 307 306
288 290 293 295 296 297 298 299 301 303 301 300 301 303 305 309 310 312 311 311 309 310 308 306 307 308 306
290 292 295 296 297 297 300 303 304 302 301 299 302 304 306 307 308 313 313 310 310 310 309 308 308 308 308